User: anonymous
Location: Oshawa
(43.9000°N, 78.8670°W)
Time: 19:27:10
(UTC-04:00)
Language:

Iridium 54 - Orbit

View from above orbital plane
View from above orbital plane
View from above satellite
View from above satellite

Ground track
Ground track

The orbit data is extracted from the following two-line orbital elements,

1 25171U 98010C   14259.42118685  .00000234  00000-0  76623-4 0  9076
2 25171 086.3957 050.3581 0002141 111.4746 248.6678 14.34216467867910
Epoch (UTC): 16 September 2014 10:06:30
Eccentricity: 0.0002141
inclination: 86.3957°
perigee height: 776 km
apogee height: 779 km
right ascension of ascending node: 50.3581°
argument of perigee: 111.4746°
revolutions per day: 14.34216467
mean anomaly at epoch: 248.6678°
orbit number at epoch: 86791

The dashed part of the orbit path shows where the satellite is in the earth's shadow,  

DLR